[[{"header":{"parameterUnit":"m.s-1","parameterCategory":1,"la1":30.2991,"la2":30.254,"lo1":-89.0895,"lo2":-89.0444,"dy":0.0017,"dx":0.0017,"nx":28,"ny":28,"refTime":"2025-02-13T03:00:00:Z","depth":0,"parameterNumber":2,"parameterNumberName":"U-component_of_WINDS"},"data":[0,0,0,0,0,0,0,0,0,0,0,0,0,0,0,0,0,0,0,0,0,0,0,0,0,0,0,0,0,0,0,0,0,0,0,0,0,0,0,0,0,0,0,0,0,0,0,0,0,0,0,0,0,0,0,0,0,0,-7.481,-7.4811,0,-7.4877,-7.4878,-7.4879,-7.4733,-7.4728,-7.4724,-7.4719,-7.4787,-7.4793,-7.4799,0,0,0,0,0,0,0,0,0,0,0,0,0,-7.4556,-7.4562,-7.481,-7.4811,-7.4812,-7.4877,-7.4878,-7.4879,-7.4734,-7.4728,-7.4723,-7.4717,-7.4785,-7.4792,-7.48,0,0,0,0,0,0,0,0,0,0,0,0,0,-7.4649,-7.4563,-7.481,-7.4747,-7.4743,-7.4877,-7.4878,-7.4879,-7.4735,-7.4728,-7.4721,-7.4715,-7.4783,-7.4791,-7.4801,-7.4999,0,0,-7.4829,-7.4833,0,0,0,0,0,0,0,0,-7.4644,-7.4659,-7.4756,-7.4752,-7.4747,-7.479,-7.4813,-7.4919,-7.4737,-7.4738,-7.4719,-7.4711,-7.4794,-7.4801,-7.4829,-7.5002,-7.5005,-7.483,-7.4835,-7.4839,-7.4842,0,0,0,0,0,0,0,-7.4638,-7.4655,-7.4837,-7.4757,-7.4752,-7.4716,-7.4721,-7.4833,-7.4804,-7.4737,-7.4727,-7.4737,-7.479,-7.4821,-7.483,-7.5006,-7.483,-7.4838,-7.4843,-7.4847,-7.5344,-7.5351,0,0,0,0,0,0,-7.464,-7.4651,-7.4834,-7.4839,-7.4677,-7.4726,-7.4732,-7.4783,-7.4803,-7.4799,-7.4743,-7.473,-7.4808,-7.4819,-7.4832,-7.5064,-7.4839,-7.4848,-7.4853,-7.5336,-7.5346,-7.5354,0,0,0,0,0,0,-7.4635,-7.4657,-7.4832,-7.4742,-7.4761,-7.4738,-7.4796,-7.4788,-7.4819,-7.4807,-7.4801,-7.478,-7.4803,-7.4819,-7.4958,-7.5064,-7.4852,-7.4861,-7.5327,-7.5339,-7.535,-7.553,0,0,0,0,0,0,-7.4628,-7.4656,-7.4731,-7.4745,-7.4767,-7.4958,-7.4803,-7.4794,-7.4835,-7.4819,-7.484,-7.4837,-7.4799,-7.4945,-7.4968,-7.5073,-7.4868,-7.5318,-7.5333,-7.5346,-7.5515,-7.5547,-7.5574,0,0,0,0,0,-7.4619,-7.4779,-7.4736,-7.4759,-7.486,-7.4964,-7.4977,-7.493,-7.4845,-7.4919,-7.4912,-7.4836,-7.505,-7.4961,-7.4985,-7.5094,-7.5311,-7.5328,-7.5345,-7.5501,-7.554,-7.5573,0,0,0,0,0,0,-7.4778,-7.478,-7.4732,-7.4901,-7.4934,-7.4939,-7.5032,-7.4973,-7.503,-7.5012,-7.4952,-7.4958,-7.5109,-7.5116,-7.5017,-7.5287,-7.5166,-7.5189,-7.5276,-7.5313,-7.5342,-7.5336,-7.4876,0,0,0,0,0,-7.4833,-7.4918,-7.4915,-7.5064,-7.5083,-7.5056,-7.5099,-7.5061,-7.5092,-7.5105,-7.5107,-7.5141,-7.5215,-7.5265,-7.5333,-7.5516,-7.5518,-7.5604,-7.5633,-7.5658,-7.5677,-7.5774,-7.5811,-7.541,-7.541,-7.541,0,0,-7.4946,-7.4958,-7.5015,-7.5096,-7.5117,-7.5206,-7.5068,-7.5167,-7.5232,-7.512,-7.5251,-7.5255,-7.5288,-7.5451,-7.5522,-7.5461,-7.5789,-7.568,-7.5699,-7.5705,-7.5795,-7.5833,-7.5867,-7.5422,-7.542,-7.5418,0,0,-7.5198,-7.5216,-7.5342,-7.5366,-7.54,-7.5381,-7.5412,-7.5428,-7.5426,-7.5557,-7.5475,-7.5552,-7.5681,-7.5708,-7.5738,-7.6004,-7.5935,-7.6028,-7.618,-7.6275,-7.6307,-7.6335,-7.6427,-7.6461,-7.6048,-7.6048,-7.6049,0,-7.5334,-7.5464,-7.5414,-7.552,-7.5558,-7.5462,-7.5588,-7.5615,-7.5669,-7.5697,-7.5629,-7.579,-7.5805,-7.5972,-7.6037,-7.6066,-7.6098,-7.6023,-7.6307,-7.6334,-7.6359,-7.6446,-7.6482,-7.6059,-7.6058,-7.6057,-7.6056,0,-7.563,-7.5722,-7.582,-7.5875,-7.5924,-7.6041,-7.6008,-7.6064,-7.6023,-7.6011,-7.6146,-7.6163,-7.6232,-7.6269,-7.6229,-7.6431,-7.6392,-7.6317,-7.6192,-7.6409,-7.649,-7.6523,-7.6074,-7.6071,-7.6067,-7.6065,0,0,-7.5979,-7.6007,-7.6044,-7.6067,-7.6099,-7.6169,-7.6282,-7.635,-7.6398,-7.6441,-7.6532,-7.6646,-7.6576,-7.6611,-7.6574,-7.6658,-7.6865,-7.6572,-7.6572,-7.6624,-7.7087,-7.7141,-7.7181,-7.6822,-7.6828,-7.6833,-7.7083,0,-7.6226,-7.6418,-7.6377,-7.6566,-7.665,-7.6562,-7.6659,-7.6689,-7.6683,-7.6753,-7.6745,-7.6826,-7.6729,-7.675,-7.6829,-7.6823,-7.6957,-7.6805,-7.6905,-7.6909,-7.6896,-7.7224,-7.7281,-7.7516,-7.7115,-7.712,-7.7124,0,-7.6538,-7.6593,-7.679,-7.6809,-7.6842,-7.6931,-7.699,-7.7059,-7.7092,-7.7081,-7.7122,-7.707,-7.7181,-7.7059,-7.7211,-7.7108,-7.7148,-7.7152,-7.716,-7.7164,-7.7027,-7.7234,-7.759,-7.7624,-7.7174,-7.717,-7.7167,0,-7.677,-7.6893,-7.7027,-7.705,-7.7076,-7.714,-7.7154,-7.718,-7.7224,-7.7277,-7.7305,-7.7371,-7.7406,-7.7458,-7.7424,-7.7339,-7.7582,-7.7457,-7.7574,-7.7575,-7.7626,-7.7623,-7.799,-7.7658,-7.7657,-7.7656,-7.7656,0,-7.7048,-7.7172,-7.7131,-7.7213,-7.7349,-7.7302,-7.7438,-7.7442,-7.7466,-7.7547,-7.7476,-7.7554,-7.7506,-7.758,-7.7555,-7.7684,-7.7701,-7.7695,-7.7686,-7.7699,-7.77,-7.7721,-7.7703,-7.7666,-7.7664,-7.7662,-7.766,0,-7.7328,-7.7306,-7.7446,-7.746,-7.7466,-7.7566,-7.7577,-7.7654,-7.7643,-7.7747,-7.7768,-7.7752,-7.7835,-7.7808,-7.7898,-7.7881,-7.8044,-7.8016,-7.8033,-7.8024,-7.8142,-7.8131,-7.8533,-7.8583,-7.8222,-7.8225,-7.8228,0,-7.7505,-7.7598,-7.7623,-7.7672,-7.7691,-7.7772,-7.7817,-7.7776,-7.7825,-7.7871,-7.7942,-7.802,-7.8079,-7.8216,-7.8212,-7.828,-7.8251,-7.8388,-7.8261,-7.8271,-7.825,-7.8244,-7.8252,-7.8412,-7.8416,-7.842,-7.8422,0,-7.782,-7.7805,-7.7873,-7.7938,-7.7994,-7.8043,-7.8085,-7.813,-7.8092,-7.8152,-7.8236,-7.8283,-7.8375,-7.8453,-7.8515,-7.8529,-7.847,-7.8464,-7.8494,-7.8506,-7.8511,-7.8508,-7.8098,-7.8453,-7.845,-7.8448,-7.8446,-7.8445,-7.8052,-7.813,-7.816,-7.8238,-7.8266,-7.8308,-7.8381,-7.838,-7.845,-7.8522,-7.8494,-7.8592,-7.8623,-7.8701,-7.8724,-7.88,-7.8747,-7.8791,-7.8802,-7.8813,-7.8827,-7.8503,-7.8811,-7.881,-7.881,-7.8809,-7.8808,0,-7.8361,-7.8377,-7.8449,-7.8511,-7.8573,-7.8515,-7.8559,-7.8614,-7.8701,-7.8736,-7.8797,-7.8895,-7.897,-7.8973,-7.9044,-7.9104,-7.9078,-7.9123,-7.9117,-7.9121,-7.8871,-7.8836,-7.9143,-7.9143,-7.9143,-7.9143,-7.9143,-7.9142,-7.8529,-7.8658,-7.8648,-7.879,-7.8805,-7.89,-7.8931,-7.8969,-7.8997,-7.9109,-7.9172,-7.9174,-7.9196,-7.9268,-7.9335,-7.9334,-7.9362,-7.9417,-7.9406,-7.9172,-7.9138,-7.9106,-7.9073,-7.9425,-7.9425,-7.9649,-7.9651,-7.9652]},{"header":{"parameterUnit":"m.s-1","parameterCategory":1,"la1":30.2991,"la2":30.254,"lo1":-89.0895,"lo2":-89.0444,"dy":0.0017,"dx":0.0017,"nx":28,"ny":28,"refTime":"2025-02-13T03:00:00:Z","depth":0,"parameterNumber":3,"parameterNumberName":"V-component_of_WINDS"},"data":[0,0,0,0,0,0,0,0,0,0,0,0,0,0,0,0,0,0,0,0,0,0,0,0,0,0,0,0,0,0,0,0,0,0,0,0,0,0,0,0,0,0,0,0,0,0,0,0,0,0,0,0,0,0,0,0,0,0,1.159,1.159,0,1.1563,1.1562,1.1562,1.1574,1.1575,1.1575,1.1576,1.1543,1.1542,1.154,0,0,0,0,0,0,0,0,0,0,0,0,0,1.1652,1.1651,1.159,1.159,1.159,1.1563,1.1562,1.1562,1.1574,1.1575,1.1575,1.1576,1.1543,1.1542,1.154,0,0,0,0,0,0,0,0,0,0,0,0,0,1.1625,1.1651,1.1591,1.1593,1.1593,1.1563,1.1562,1.1562,1.1574,1.1575,1.1576,1.1577,1.1544,1.1542,1.154,1.1505,0,0,1.1533,1.1532,0,0,0,0,0,0,0,0,1.1627,1.1623,1.1593,1.1592,1.1592,1.1573,1.1572,1.1542,1.1573,1.1581,1.1576,1.1577,1.1552,1.1549,1.1541,1.1503,1.1502,1.1532,1.1531,1.153,1.1529,0,0,0,0,0,0,0,1.1628,1.1624,1.1579,1.1592,1.1592,1.1594,1.1592,1.1566,1.1561,1.158,1.1581,1.1578,1.1552,1.1543,1.1541,1.1501,1.1533,1.1531,1.1529,1.1528,1.1436,1.1435,0,0,0,0,0,0,1.1631,1.1625,1.158,1.1578,1.1612,1.1592,1.1589,1.1578,1.1561,1.1559,1.1577,1.1578,1.1547,1.1543,1.1539,1.1499,1.153,1.1528,1.1527,1.1437,1.1436,1.1435,0,0,0,0,0,0,1.1632,1.1627,1.1581,1.1602,1.1597,1.159,1.1577,1.1577,1.1568,1.1559,1.1557,1.1569,1.1548,1.1543,1.1514,1.1498,1.1527,1.1525,1.1439,1.1437,1.1435,1.1417,0,0,0,0,0,0,1.1634,1.1627,1.1614,1.1602,1.1596,1.1557,1.1576,1.1576,1.1565,1.1567,1.1551,1.155,1.1548,1.1518,1.1512,1.1495,1.1523,1.144,1.1438,1.1436,1.1419,1.1415,1.1412,0,0,0,0,0,1.1636,1.1608,1.1613,1.1607,1.1579,1.1556,1.1552,1.1552,1.1564,1.155,1.1545,1.155,1.1501,1.1515,1.1508,1.1491,1.1441,1.1438,1.1436,1.1421,1.1416,1.1412,0,0,0,0,0,0,1.1616,1.1607,1.1612,1.158,1.1569,1.1558,1.1541,1.1546,1.1531,1.1533,1.1532,1.1529,1.15,1.1493,1.1508,1.1458,1.1473,1.1469,1.1463,1.1458,1.1455,1.1457,1.1521,0,0,0,0,0,1.1608,1.1591,1.1584,1.1556,1.1551,1.1547,1.1537,1.1538,1.1526,1.1521,1.1513,1.15,1.1482,1.147,1.1453,1.1419,1.1416,1.1404,1.14,1.1397,1.1393,1.1377,1.1372,1.1427,1.1427,1.1427,0,0,1.1591,1.1584,1.1573,1.1552,1.1544,1.1526,1.1543,1.1522,1.1509,1.1517,1.1491,1.1485,1.1471,1.144,1.1426,1.1433,1.1378,1.1394,1.1392,1.139,1.1374,1.1369,1.1364,1.1425,1.1425,1.1426,0,0,1.1551,1.1544,1.1521,1.1513,1.1502,1.15,1.1495,1.1484,1.1481,1.1455,1.1462,1.1446,1.1414,1.1404,1.1395,1.1356,1.1361,1.135,1.133,1.1314,1.1309,1.1306,1.1292,1.1287,1.1347,1.1347,1.1347,0,1.1531,1.1505,1.1508,1.1488,1.1479,1.1489,1.1466,1.1458,1.1441,1.1434,1.1443,1.1406,1.1397,1.1365,1.1356,1.1348,1.1342,1.1351,1.131,1.1306,1.1303,1.129,1.1285,1.1346,1.1346,1.1346,1.1346,0,1.1481,1.1463,1.1446,1.1432,1.1421,1.14,1.14,1.1388,1.1392,1.1389,1.1363,1.1354,1.1336,1.1328,1.133,1.1297,1.1302,1.1311,1.1325,1.1296,1.1284,1.1279,1.1344,1.1344,1.1345,1.1345,0,0,1.1425,1.1416,1.1409,1.1404,1.1393,1.1379,1.1359,1.1344,1.1334,1.1323,1.1306,1.1281,1.129,1.1279,1.1281,1.1266,1.1237,1.1277,1.1277,1.127,1.1202,1.1195,1.119,1.1241,1.124,1.124,1.1203,0,1.1385,1.135,1.1354,1.1321,1.1306,1.1316,1.1299,1.1291,1.1289,1.1274,1.1272,1.1255,1.1267,1.1261,1.1248,1.1244,1.1223,1.1246,1.1225,1.1224,1.1228,1.1183,1.1175,1.1141,1.1198,1.1198,1.1197,0,1.1332,1.1321,1.1288,1.1282,1.1276,1.126,1.1247,1.1234,1.1225,1.1225,1.1216,1.122,1.12,1.1217,1.1189,1.1205,1.1197,1.1194,1.1193,1.119,1.1208,1.1179,1.113,1.1125,1.1189,1.119,1.1191,0,1.1295,1.1272,1.125,1.1245,1.1238,1.1227,1.1223,1.1216,1.1207,1.1196,1.119,1.1176,1.1168,1.1158,1.1159,1.1171,1.1131,1.1147,1.113,1.113,1.112,1.112,1.1069,1.1115,1.1115,1.1115,1.1116,0,1.1249,1.1228,1.1234,1.1219,1.1197,1.1202,1.1179,1.1177,1.1171,1.1156,1.1165,1.1151,1.1153,1.114,1.114,1.1118,1.1114,1.1113,1.1113,1.1112,1.1112,1.1106,1.1108,1.1114,1.1114,1.1115,1.1115,0,1.1203,1.1206,1.1183,1.1179,1.1178,1.1161,1.1158,1.1145,1.1145,1.1127,1.1123,1.1122,1.1107,1.1108,1.1089,1.109,1.1063,1.1066,1.1066,1.1067,1.1049,1.1051,1.0991,1.0984,1.1036,1.1035,1.1035,0,1.1173,1.1158,1.1154,1.1146,1.1142,1.1129,1.1121,1.1126,1.1118,1.1109,1.1097,1.1083,1.1072,1.1047,1.1044,1.1031,1.1034,1.1014,1.1031,1.1031,1.1034,1.1034,1.1033,1.101,1.1009,1.1009,1.1009,0,1.112,1.1124,1.1113,1.1103,1.1094,1.1086,1.1079,1.1071,1.1076,1.1066,1.1052,1.1043,1.1027,1.1013,1.1001,1.0997,1.1003,1.1004,1.0999,1.0997,1.0998,1.0997,1.1057,1.1004,1.1005,1.1005,1.1005,1.1005,1.1082,1.1069,1.1066,1.1054,1.105,1.1043,1.1032,1.1032,1.102,1.1008,1.1012,1.0996,1.099,1.0975,1.097,1.0957,1.0964,1.0957,1.0955,1.0953,1.0952,1.1001,1.0955,1.0955,1.0955,1.0956,1.0956,0,1.103,1.1029,1.1018,1.1009,1.1,1.101,1.1003,1.0995,1.0981,1.0975,1.0966,1.095,1.0937,1.0935,1.0923,1.0914,1.0917,1.091,1.0911,1.091,1.0946,1.0951,1.0908,1.0908,1.0908,1.0908,1.0908,1.0909,1.1001,1.0982,1.0985,1.0963,1.0962,1.0948,1.0943,1.0938,1.0934,1.0917,1.0907,1.0907,1.0903,1.0892,1.0881,1.0881,1.0876,1.0868,1.0869,1.0902,1.0907,1.0912,1.0917,1.0867,1.0867,1.0834,1.0834,1.0833]}]]